TimeCDT,TemperatureF,Dew PointF,Humidity,Sea Level PressureIn,VisibilityMPH,Wind Direction,Wind SpeedMPH,Gust SpeedMPH,PrecipitationIn,Events,Conditions,WindDirDegrees,DateUTC
12:15 AM,55.4,53.6,94,30.10,10.0,NW,3.5,-,N/A,,Clear,310,2013-07-12 05:15:00
12:35 AM,55.4,53.6,94,30.10,10.0,Calm,Calm,-,N/A,,Clear,0,2013-07-12 05:35:00
12:55 AM,55.4,53.6,94,30.10,10.0,Calm,Calm,-,N/A,,Clear,0,2013-07-12 05:55:00
1:15 AM,55.4,53.6,94,30.10,10.0,Calm,Calm,-,N/A,,Clear,0,2013-07-12 06:15:00
1:35 AM,55.4,53.6,94,30.10,10.0,Calm,Calm,-,N/A,,Clear,0,2013-07-12 06:35:00
1:55 AM,55.4,53.6,94,30.11,10.0,Calm,Calm,-,N/A,,Clear,0,2013-07-12 06:55:00
2:15 AM,53.6,51.8,94,30.10,7.0,Calm,Calm,-,N/A,,Clear,0,2013-07-12 07:15:00
2:35 AM,53.6,53.6,100,30.10,7.0,WNW,3.5,-,N/A,,Clear,290,2013-07-12 07:35:00
2:55 AM,53.6,53.6,100,30.11,7.0,Calm,Calm,-,N/A,,Clear,0,2013-07-12 07:55:00
3:15 AM,53.6,53.6,100,30.11,4.0,Calm,Calm,-,N/A,,Clear,0,2013-07-12 08:15:00
3:35 AM,53.6,53.6,100,30.11,4.0,Calm,Calm,-,N/A,,Clear,0,2013-07-12 08:35:00
3:55 AM,53.6,53.6,100,30.12,4.0,WNW,3.5,-,N/A,,Clear,300,2013-07-12 08:55:00
4:15 AM,53.6,51.8,94,30.13,4.0,Calm,Calm,-,N/A,,Clear,0,2013-07-12 09:15:00
4:35 AM,53.6,53.6,100,30.13,5.0,NNW,5.8,-,N/A,,Clear,330,2013-07-12 09:35:00
4:55 AM,55.4,53.6,94,30.14,7.0,NNW,4.6,-,N/A,,Clear,330,2013-07-12 09:55:00
5:15 AM,53.6,53.6,100,30.14,5.0,Calm,Calm,-,N/A,,Clear,0,2013-07-12 10:15:00
5:35 AM,53.6,53.6,100,30.14,5.0,Calm,Calm,-,N/A,,Clear,0,2013-07-12 10:35:00
5:55 AM,53.6,53.6,100,30.14,4.0,Calm,Calm,-,N/A,,Clear,0,2013-07-12 10:55:00
6:15 AM,55.4,53.6,94,30.14,5.0,Calm,Calm,-,N/A,,Clear,0,2013-07-12 11:15:00
6:35 AM,55.4,55.4,100,30.14,5.0,Calm,Calm,-,N/A,,Clear,0,2013-07-12 11:35:00
6:55 AM,59.0,55.4,88,30.14,7.0,Calm,Calm,-,N/A,,Clear,0,2013-07-12 11:55:00
7:15 AM,60.8,59.0,94,30.14,10.0,Calm,Calm,-,N/A,,Clear,0,2013-07-12 12:15:00
7:35 AM,62.6,59.0,88,30.16,10.0,North,4.6,-,N/A,,Clear,360,2013-07-12 12:35:00
7:55 AM,64.4,60.8,88,30.16,10.0,NNE,3.5,-,N/A,,Clear,20,2013-07-12 12:55:00
8:15 AM,64.4,60.8,88,30.16,10.0,ENE,4.6,-,N/A,,Clear,60,2013-07-12 13:15:00
8:35 AM,68.0,60.8,78,30.16,10.0,NE,3.5,-,N/A,,Clear,50,2013-07-12 13:35:00
8:55 AM,68.0,60.8,78,30.15,10.0,East,5.8,-,N/A,,Clear,80,2013-07-12 13:55:00
9:15 AM,69.8,62.6,78,30.14,10.0,ENE,3.5,-,N/A,,Clear,70,2013-07-12 14:15:00
9:35 AM,71.6,62.6,73,30.14,10.0,East,3.5,-,N/A,,Clear,80,2013-07-12 14:35:00
9:55 AM,71.6,60.8,69,30.14,10.0,ENE,3.5,-,N/A,,Clear,60,2013-07-12 14:55:00
10:15 AM,73.4,60.8,65,30.14,10.0,NE,3.5,-,N/A,,Clear,50,2013-07-12 15:15:00
10:35 AM,73.4,59.0,61,30.15,10.0,Calm,Calm,-,N/A,,Clear,0,2013-07-12 15:35:00
10:55 AM,77.0,55.4,47,30.15,10.0,Calm,Calm,-,N/A,,Clear,0,2013-07-12 15:55:00
11:15 AM,77.0,53.6,44,30.15,10.0,ENE,3.5,-,N/A,,Clear,60,2013-07-12 16:15:00
11:35 AM,77.0,53.6,44,30.15,10.0,NNE,6.9,-,N/A,,Clear,30,2013-07-12 16:35:00
11:55 AM,77.0,51.8,41,30.14,10.0,North,5.8,-,N/A,,Clear,360,2013-07-12 16:55:00
12:15 PM,78.8,53.6,42,30.14,10.0,NNE,5.8,-,N/A,,Clear,30,2013-07-12 17:15:00
12:35 PM,78.8,53.6,42,30.14,10.0,NE,4.6,-,N/A,,Clear,50,2013-07-12 17:35:00
12:55 PM,78.8,53.6,42,30.13,10.0,NW,4.6,-,N/A,,Clear,320,2013-07-12 17:55:00
1:15 PM,78.8,51.8,39,30.13,10.0,Calm,Calm,-,N/A,,Clear,0,2013-07-12 18:15:00
1:35 PM,78.8,53.6,42,30.13,10.0,NE,6.9,-,N/A,,Clear,40,2013-07-12 18:35:00
1:55 PM,78.8,53.6,42,30.13,10.0,NE,8.1,-,N/A,,Clear,40,2013-07-12 18:55:00
2:15 PM,78.8,51.8,39,30.13,10.0,NNE,5.8,-,N/A,,Clear,30,2013-07-12 19:15:00
2:35 PM,80.6,51.8,37,30.12,10.0,East,3.5,-,N/A,,Clear,80,2013-07-12 19:35:00
2:55 PM,80.6,53.6,39,30.11,10.0,North,5.8,-,N/A,,Clear,10,2013-07-12 19:55:00
3:15 PM,80.6,53.6,39,30.11,10.0,NE,5.8,-,N/A,,Clear,40,2013-07-12 20:15:00
3:35 PM,80.6,53.6,39,30.11,10.0,NE,5.8,-,N/A,,Clear,50,2013-07-12 20:35:00
3:55 PM,80.6,55.4,42,30.11,10.0,East,6.9,-,N/A,,Clear,80,2013-07-12 20:55:00
4:15 PM,80.6,53.6,39,30.11,10.0,North,3.5,-,N/A,,Clear,10,2013-07-12 21:15:00
4:35 PM,80.6,53.6,39,30.11,10.0,Calm,Calm,-,N/A,,Clear,0,2013-07-12 21:35:00
4:55 PM,80.6,57.2,45,30.10,10.0,NE,5.8,-,N/A,,Clear,50,2013-07-12 21:55:00
5:15 PM,80.6,55.4,42,30.10,10.0,Calm,Calm,-,N/A,,Clear,0,2013-07-12 22:15:00
5:35 PM,80.6,53.6,39,30.09,10.0,ENE,5.8,-,N/A,,Clear,60,2013-07-12 22:35:00
5:55 PM,80.6,53.6,39,30.09,10.0,NE,6.9,-,N/A,,Clear,50,2013-07-12 22:55:00
6:15 PM,80.6,53.6,39,30.09,10.0,ENE,8.1,-,N/A,,Clear,70,2013-07-12 23:15:00
6:35 PM,78.8,53.6,42,30.09,10.0,East,8.1,-,N/A,,Clear,80,2013-07-12 23:35:00
6:55 PM,78.8,55.4,44,30.09,10.0,East,6.9,-,N/A,,Clear,80,2013-07-12 23:55:00
7:15 PM,77.0,55.4,47,30.09,10.0,East,5.8,-,N/A,,Clear,80,2013-07-13 00:15:00
7:35 PM,75.2,59.0,57,30.10,10.0,East,5.8,-,N/A,,Clear,80,2013-07-13 00:35:00
7:55 PM,73.4,59.0,61,30.10,10.0,East,4.6,-,N/A,,Clear,90,2013-07-13 00:55:00
8:15 PM,71.6,60.8,69,30.10,10.0,ENE,3.5,-,N/A,,Clear,70,2013-07-13 01:15:00
8:35 PM,71.6,60.8,69,30.10,10.0,ENE,3.5,-,N/A,,Clear,60,2013-07-13 01:35:00
8:55 PM,69.8,62.6,78,30.11,10.0,NNE,5.8,-,N/A,,Clear,20,2013-07-13 01:55:00
9:15 PM,68.0,60.8,78,30.11,10.0,NE,4.6,-,N/A,,Clear,40,2013-07-13 02:15:00
9:35 PM,68.0,60.8,78,30.12,10.0,North,4.6,-,N/A,,Clear,10,2013-07-13 02:35:00
9:55 PM,68.0,60.8,78,30.13,10.0,North,3.5,-,N/A,,Clear,10,2013-07-13 02:55:00
10:15 PM,66.2,60.8,83,30.13,10.0,NNE,3.5,-,N/A,,Clear,20,2013-07-13 03:15:00
10:35 PM,66.2,59.0,78,30.13,10.0,NNE,4.6,-,N/A,,Clear,30,2013-07-13 03:35:00
10:55 PM,66.2,59.0,78,30.12,10.0,North,4.6,-,N/A,,Clear,10,2013-07-13 03:55:00
11:15 PM,66.2,60.8,83,30.12,10.0,NNE,4.6,-,N/A,,Clear,20,2013-07-13 04:15:00
11:35 PM,62.6,59.0,88,30.12,10.0,NNE,3.5,-,N/A,,Clear,30,2013-07-13 04:35:00
11:55 PM,64.4,59.0,83,30.12,10.0,NNE,5.8,-,N/A,,Clear,30,2013-07-13 04:55:00